STARLINK-34696

Last updated on Sat Aug 16 2025 00:02:05 GMT+0000 (Coordinated Universal Time)

1 64808U 25150U 25227.58336806 .00048244 00000+0 10994-2 0 9992 2 64808 69.9995 315.3396 0003733 274.7677 112.0413 15.42676952 6084
UTC large
Height (km)
Speed (km/s)
/
Latitude / Longitude
Inclination (degrees)
Orbital Period (minutes)
Azimuth
Elevation
Range (km)
Doppler Factor

Next 0 passes for location: London (51.5072 / 0.1276)

Sorry there are no passes over London.